Temp
-3 -3 -4 -3 -3 -4 -3 -2 -2 -2 -2 -1 -1 -1 -1 -1 -2 -2 -1 -2 -2 -3 -2 -1 -1 -1 -1 -0 -1 0 -0 -0 -1 -2 -2 -2 0 2 2 3 3 3 3 3 4 3 2 8 7 5 6 8 7 7
-4 -4 -4 -4 -3 -4 -3 -3 -2 -2 -1 -1 -1 -1 -1 -1 -1 -2 -2 -1 -2 -3 -2 -1 0 -0 -1 -0 -0 -0 0 1 1 -3 -2 -0 -0 -0 1 0 4 2 3 3 3 3 6 6 6 7 7 7 6 6
-4 -4 -4 -4 -3 -3 -3 -2 -2 -2 -1 -1 -1 -1 -1 -1 -1 -1 -1 -1 -1 -1 -2 -1 -1 0 -0 0 0 -2 -1 -1 -0 1 -1 -0 -1 -2 -2 -0 2 2 4 3 3 4 5 5 6 6 7 7 6 6
-4 -4 -4 -3 -3 -3 -2 -2 -2 -1 -1 -1 -1 -1 -1 -1 -1 -1 -1 -1 -2 -1 -2 -0 0 1 3 2 1 -0 -0 -1 -1 -1 -1 -1 -1 0 -2 0 1 2 2 2 2 4 4 5 5 5 6 7 6 6
-4 -4 -4 -3 -3 -2 -2 -2 -2 -1 -1 -1 -1 -0 -1 -1 -1 -1 -1 -1 -1 -2 -1 -1 -1 1 2 2 2 1 -0 -1 -1 -1 -1 -1 -0 -1 -1 -0 -0 2 1 1 2 4 4 4 5 5 5 6 5 5
-4 -4 -4 -4 -3 -3 -2 -2 -2 -2 -2 -1 -1 -1 -1 -1 -1 -1 -1 1 -0 -0 -1 -1 0 1 2 2 1 1 1 -1 -1 -1 -1 -1 0 0 -1 0 3 3 3 3 2 3 3 3 4 4 4 4 4 5
-4 -4 -4 -4 -3 -3 -2 -2 -2 -2 -2 -2 -1 -1 -1 -1 -1 -1 -1 -1 -1 -1 -1 -1 -2 2 3 3 1 1 -0 -1 -1 -1 -1 -0 0 0 -0 0 3 3 4 4 3 3 3 3 3 4 4 4 5 5
-5 -4 -4 -4 -4 -3 -3 -3 -2 -2 -1 -1 -1 -1 -1 -1 -1 -1 -1 -1 -1 -1 -1 -1 -2 0 3 2 1 1 0 -0 -0 -0 -0 -0 1 -0 0 2 3 3 2 2 3 3 3 3 3 3 4 4 4 4
-5 -5 -5 -5 -4 -3 -3 -2 -2 -2 -1 -1 -1 -1 -1 -2 -1 -1 -1 -1 -1 -1 -2 -2 -3 -3 3 3 2 1 1 1 0 -0 1 1 1 1 3 4 1 1 0 0 -0 1 3 3 3 3 3 4 3 2
-6 -6 -5 -5 -4 -3 -3 -2 -2 -1 -1 -1 -1 -1 -1 -1 -1 -1 -1 -1 -1 -1 -1 -1 0 -3 2 3 1 0 -0 1 1 1 1 0 1 3 0 -0 -0 -1 -2 -2 -2 -0 -0 2 3 3 3 3 3 2
-6 -6 -6 -6 -5 -3 -3 -2 -2 -2 -2 -1 -1 -1 -1 -1 -1 -1 -2 -2 -1 -1 -2 -2 -1 -2 2 -2 -1 0 -1 -0 1 1 1 1 2 -0 -1 -2 -3 -3 -3 -2 -1 -1 -0 -0 1 2 2 2 1 -0
-6 -7 -6 -6 -5 -3 -2 -2 -2 -2 -1 -1 -1 -1 -1 -1 -1 -1 -1 -2 -1 -0 -0 -1 -0 -0 1 0 0 -0 0 -1 0 1 1 2 -0 -2 -3 -4 -4 -4 -4 -4 -4 -4 -2 -1 -1 -0 -0 -0 -2 -4
-6 -6 -6 -6 -4 -3 -2 -3 -2 -2 -2 -1 -1 -1 -1 -1 -0 -0 -0 1 -2 1 1 1 -1 -0 -0 -0 -1 -0 1 -1 1 2 2 -0 -2 -3 -4 -5 -5 -5 -5 -5 -5 -5 -5 -5 -5 -5 -6 -6 -6 -4
-6 -6 -6 -6 -4 -3 -2 -3 -2 -2 -1 -1 -1 -1 -1 -1 -0 -1 -1 1 2 1 1 0 -0 -1 -1 -1 -1 0 -1 1 -0 1 0 -1 -3 -4 -4 -5 -5 -5 -6 -6 -6 -5 -5 -5 -6 -5 -5 -4 -4 -5
-6 -6 -5 -5 -3 -2 -2 -3 -2 -2 -1 -1 -1 -0 -1 1 2 2 3 2 2 2 1 0 -0 -0 -0 -1 -0 -0 -0 1 2 0 -1 -2 -3 -4 -4 -5 -5 -5 -5 -5 -5 -5 -5 -4 -4 -5 -5 -4 -4 -6
-6 -5 -4 -4 -3 -2 -3 -3 -3 -2 -1 -0 0 -0 1 -1 -1 1 1 2 2 1 0 1 0 0 0 0 1 0 2 2 0 -1 -2 -3 -4 -4 -4 -5 -4 -4 -4 -4 -4 -4 -4 -4 -4 -5 -6 -6 -6 -5
-6 -5 -5 -3 -2 -3 -3 -4 -3 -2 -1 1 1 3 3 3 3 3 2 2 2 1 1 0 1 2 -0 1 2 1 -0 -2 -1 -2 -3 -3 -4 -4 -4 -4 -4 -4 -4 -4 -4 -4 -4 -5 -5 -5 -5 -6 -6 -7
-6 -5 -5 -5 -4 -4 -4 -3 -2 -1 -1 2 1 4 4 4 4 3 3 3 2 1 2 1 2 2 0 3 2 -2 -1 -1 -2 -3 -2 -3 -4 -4 -4 -4 -4 -5 -5 -5 -5 -5 -5 -5 -4 -6 -6 -7 -7 -8
-7 -6 -6 -5 -5 -4 -3 -3 -2 -1 1 3 3 4 4 4 4 3 3 3 2 4 4 3 1 0 -0 0 1 1 0 -2 -3 -3 -3 -3 -3 -4 -4 -4 -4 -4 -4 -5 -5 -6 -6 -6 -6 -6 -7 -7 -7 -8
-6 -6 -5 -5 -5 -4 -2 -1 -1 1 1 3 4 4 3 3 3 3 3 3 3 4 3 0 -1 2 3 2 1 1 0 -1 -2 -3 -4 -4 -4 -4 -4 -4 -4 -4 -5 -5 -5 -4 -5 -5 -6 -6 -6 -6 -7 -8
-6 -5 -5 -4 -5 -5 -3 -1 -0 2 3 3 4 4 3 3 3 3 3 3 3 3 0 4 3 3 2 1 -0 -0 -1 -1 -2 -2 -3 -4 -5 -5 -5 -5 -5 -4 -4 -4 -4 -4 -4 -4 -5 -5 -5 -6 -7 -7
-6 -6 -5 -5 -4 -5 -4 -2 0 2 3 4 3 4 2 2 2 3 3 2 3 3 4 3 3 3 1 -0 -1 -1 -1 -0 -1 -2 -3 -3 -5 -5 -5 -5 -5 -5 -5 -5 -5 -5 -5 -5 -5 -6 -6 -7 -7 -7
-6 -5 -5 -4 -4 -3 -1 1 1 2 1 1 2 1 1 1 3 3 3 3 3 3 4 3 3 2 1 -1 -2 -2 -1 -1 -1 -2 -3 -4 -4 -5 -5 -5 -5 -5 -5 -5 -5 -5 -5 -6 -6 -6 -7 -7 -7 -8
-5 -5 -4 -3 -3 -4 -1 0 1 2 2 0 0 2 -0 2 2 2 -1 2 3 3 3 3 2 1 0 -2 -2 -2 -1 -1 -1 -2 -3 -4 -4 -5 -5 -5 -5 -5 -5 -5 -5 -6 -6 -6 -6 -6 -7 -7 -7 -8
-5 -4 -4 -6 -2 -4 -5 -3 -1 -0 -2 -0 1 -1 -1 2 -2 -2 -2 1 3 2 2 2 1 1 1 -0 -0 -0 -1 -1 -1 -2 -3 -3 -4 -4 -5 -5 -5 -5 -5 -5 -5 -5 -6 -7 -7 -7 -7 -7 -7 -8
-6 -4 -6 -7 -7 -4 -3 -4 -4 -3 -1 -2 -0 1 2 -3 -4 -3 -1 1 1 1 1 1 1 0 -0 -0 -0 -0 -0 -1 -1 -1 -2 -3 -4 -4 -4 -4 -5 -5 -5 -5 -5 -5 -6 -6 -8 -8 -8 -8 -8 -8
-9 -10 -4 -3 -2 -1 -3 -0 0 -2 -3 -3 -2 -4 -4 -3 -4 -3 -1 -1 -0 0 0 0 0 0 1 0 1 1 1 0 -0 -1 -1 -2 -3 -4 -4 -4 -4 -4 -5 -5 -5 -5 -5 -6 -7 -8 -8 -8 -8 -8
-6 -5 -7 -3 -2 -1 -6 -4 -3 -3 -2 1 -1 -4 -3 -3 -2 -2 -2 -1 -1 -1 -1 -1 -1 -0 -0 0 1 1 1 0 -1 -1 -2 -3 -4 -4 -4 -4 -4 -4 -4 -5 -5 -5 -6 -6 -6 -6 -7 -7 -8 -8
-6 -4 -3 -8 -3 -2 -2 -4 -3 -0 0 0 -3 -5 -5 -4 -4 -3 -3 -3 -3 -4 -3 -2 -2 -2 -2 -1 -1 -0 -1 -1 -1 -1 -2 -3 -3 -4 -4 -4 -4 -4 -4 -5 -5 -5 -5 -6 -6 -6 -7 -7 -8 -8
-5 -4 -4 -7 -8 -6 -2 -1 -1 -1 -1 -1 -1 -4 -5 -5 -5 -4 -4 -5 -5 -5 -6 -5 -4 -3 -3 -2 -2 -2 -2 -2 -2 -2 -2 -3 -3 -3 -4 -4 -4 -4 -4 -5 -5 -6 -6 -7 -8 -9 -9 -9 -9 -9
-4 -4 -4 -4 -7 -2 -2 -2 -2 -2 -2 -2 -3 -3 -5 -6 -6 -5 -5 -5 -5 -5 -5 -6 -6 -5 -5 -4 -4 -4 -3 -4 -4 -4 -3 -3 -3 -3 -3 -4 -4 -4 -4 -5 -5 -6 -7 -8 -8 -8 -9 -8 -8 -8
-5 -4 -6 -9 -6 -5 -4 -3 -3 -3 -3 -3 -5 -5 -6 -6 -6 -6 -6 -6 -5 -6 -6 -6 -6 -5 -5 -5 -5 -4 -4 -4 -5 -4 -4 -4 -4 -4 -4 -4 -4 -4 -4 -5 -5 -6 -7 -7 -7 -6 -6 -7 -7 -8
-5 -4 -4 -5 -5 -5 -5 -4 -4 -4 -4 -4 -5 -5 -5 -5 -6 -6 -6 -6 -6 -6 -6 -6 -6 -6 -6 -6 -5 -5 -5 -5 -5 -5 -4 -4 -4 -4 -4 -4 -4 -5 -5 -5 -5 -6 -7 -7 -7 -7 -6 -7 -7 -7
Height
1488 1490 1491 1492 1494 1496 1499 1501 1504 1506 1509 1511 1513 1515 1517 1520 1523 1524 1524 1528 1530 1530 1524 1526 1526 1526 1526 1527 1529 1526 1528 1522 1520 1523 1521 1516 1506 1500 1494 1488 1489 1490 1490 1485 1481 1480 1474 1451 1455 1462 1458 1451 1452 1453
1485 1486 1488 1489 1490 1494 1495 1497 1500 1503 1505 1507 1509 1510 1512 1515 1518 1520 1520 1523 1525 1525 1519 1516 1515 1515 1517 1519 1523 1523 1520 1518 1515 1517 1514 1510 1505 1500 1497 1493 1484 1485 1481 1479 1476 1465 1450 1450 1453 1452 1451 1444 1444 1447
1481 1483 1485 1487 1488 1490 1492 1495 1498 1500 1502 1503 1504 1506 1508 1510 1512 1514 1515 1518 1519 1517 1511 1507 1503 1505 1506 1506 1512 1514 1505 1510 1508 1509 1508 1503 1499 1496 1495 1487 1479 1471 1467 1463 1464 1449 1444 1442 1446 1445 1443 1438 1439 1441
1478 1481 1483 1484 1486 1487 1490 1493 1494 1496 1498 1499 1500 1501 1502 1504 1506 1509 1510 1512 1515 1514 1506 1498 1498 1496 1494 1494 1495 1496 1490 1501 1501 1501 1498 1493 1491 1487 1481 1476 1472 1461 1460 1451 1448 1442 1437 1437 1434 1433 1432 1431 1431 1432
1477 1479 1480 1481 1483 1485 1488 1489 1491 1493 1494 1495 1496 1498 1499 1501 1503 1505 1505 1506 1508 1512 1500 1493 1491 1488 1485 1487 1485 1485 1486 1489 1492 1492 1488 1483 1480 1484 1475 1474 1457 1438 1437 1449 1434 1425 1429 1424 1421 1424 1425 1421 1423 1425
1475 1477 1477 1479 1481 1482 1484 1486 1488 1489 1490 1492 1493 1495 1497 1499 1500 1501 1500 1498 1499 1501 1498 1490 1481 1476 1475 1477 1475 1476 1478 1482 1485 1483 1478 1473 1472 1474 1464 1448 1416 1418 1424 1424 1419 1416 1415 1415 1412 1411 1413 1413 1416 1417
1471 1474 1474 1476 1478 1479 1481 1482 1484 1486 1487 1488 1490 1492 1493 1495 1496 1498 1499 1496 1494 1498 1497 1489 1479 1470 1468 1467 1467 1469 1472 1473 1475 1473 1466 1463 1459 1464 1447 1430 1395 1408 1413 1410 1407 1405 1401 1401 1400 1398 1403 1405 1408 1409
1468 1469 1470 1472 1474 1476 1478 1479 1480 1482 1483 1485 1487 1488 1490 1491 1492 1491 1491 1493 1495 1496 1496 1490 1479 1471 1465 1464 1465 1464 1465 1466 1463 1459 1455 1451 1449 1447 1431 1404 1402 1399 1397 1394 1389 1387 1385 1385 1389 1390 1395 1397 1399 1401
1462 1463 1465 1467 1469 1472 1474 1476 1477 1479 1480 1482 1483 1484 1485 1485 1486 1485 1486 1488 1490 1495 1490 1484 1482 1477 1464 1462 1462 1462 1460 1456 1452 1447 1443 1444 1433 1425 1405 1403 1400 1392 1385 1374 1368 1368 1369 1371 1372 1378 1383 1386 1392 1393
1456 1457 1459 1462 1464 1467 1470 1472 1473 1474 1477 1478 1480 1480 1479 1479 1481 1482 1484 1485 1486 1484 1483 1476 1473 1471 1466 1462 1461 1461 1455 1451 1445 1438 1435 1430 1417 1415 1413 1404 1393 1383 1372 1358 1348 1343 1346 1353 1359 1363 1368 1378 1384 1388
1451 1452 1454 1456 1459 1462 1465 1467 1469 1472 1474 1474 1475 1475 1475 1477 1479 1480 1481 1483 1482 1480 1474 1467 1466 1464 1463 1463 1460 1459 1455 1449 1442 1432 1432 1422 1414 1415 1407 1398 1389 1376 1364 1350 1336 1328 1329 1335 1345 1354 1363 1372 1380 1384
1446 1447 1449 1451 1453 1457 1461 1463 1466 1468 1469 1469 1470 1471 1474 1476 1477 1478 1476 1476 1474 1467 1461 1460 1459 1460 1459 1458 1456 1455 1453 1449 1439 1433 1427 1416 1418 1413 1405 1397 1387 1376 1366 1354 1344 1334 1322 1324 1339 1346 1355 1364 1373 1380
1442 1443 1444 1445 1448 1452 1456 1459 1461 1464 1466 1466 1467 1468 1469 1471 1471 1469 1467 1462 1464 1455 1455 1456 1457 1457 1456 1457 1455 1454 1448 1445 1434 1429 1423 1426 1423 1416 1407 1400 1393 1384 1375 1367 1360 1352 1345 1345 1348 1353 1362 1370 1377 1386
1438 1439 1439 1440 1443 1447 1452 1455 1458 1461 1463 1460 1460 1462 1461 1461 1458 1453 1452 1449 1450 1451 1452 1453 1455 1456 1455 1456 1454 1451 1445 1439 1437 1431 1431 1431 1426 1419 1412 1407 1401 1394 1388 1382 1377 1372 1368 1366 1369 1372 1378 1385 1391 1399
1433 1434 1434 1435 1438 1443 1448 1451 1453 1457 1459 1457 1454 1451 1450 1445 1444 1444 1446 1446 1446 1447 1450 1452 1453 1454 1453 1454 1451 1449 1446 1437 1431 1433 1435 1433 1429 1424 1419 1414 1410 1404 1399 1395 1392 1389 1387 1387 1388 1391 1397 1402 1406 1411
1429 1430 1430 1431 1434 1439 1444 1447 1450 1453 1454 1451 1447 1442 1440 1442 1442 1443 1442 1442 1444 1446 1449 1450 1449 1449 1449 1448 1446 1444 1437 1432 1435 1437 1435 1433 1431 1428 1424 1420 1417 1413 1410 1407 1405 1403 1403 1404 1405 1407 1412 1416 1420 1424
1427 1427 1427 1426 1429 1435 1440 1444 1447 1447 1446 1440 1435 1433 1434 1434 1436 1437 1437 1438 1441 1444 1444 1445 1443 1441 1439 1442 1437 1436 1437 1438 1436 1435 1436 1435 1433 1431 1429 1427 1424 1422 1419 1417 1415 1415 1415 1416 1417 1419 1420 1428 1431 1435
1423 1423 1425 1426 1428 1432 1436 1439 1440 1437 1434 1430 1429 1428 1429 1430 1431 1433 1433 1435 1437 1439 1438 1438 1437 1435 1437 1432 1434 1432 1432 1434 1435 1435 1435 1435 1434 1434 1433 1432 1431 1429 1427 1426 1425 1425 1425 1427 1427 1428 1431 1436 1438 1441
1419 1420 1421 1424 1427 1430 1433 1434 1433 1428 1423 1422 1422 1423 1424 1425 1427 1428 1429 1431 1433 1433 1434 1432 1432 1432 1430 1429 1429 1429 1430 1432 1434 1435 1435 1435 1435 1435 1435 1435 1434 1433 1433 1433 1433 1433 1434 1435 1436 1437 1439 1441 1442 1446
1413 1414 1417 1420 1423 1425 1423 1421 1422 1421 1416 1415 1416 1418 1419 1421 1422 1424 1426 1427 1429 1430 1430 1429 1426 1423 1424 1425 1425 1426 1427 1429 1431 1433 1435 1436 1437 1437 1437 1437 1436 1436 1437 1437 1438 1439 1440 1441 1443 1444 1445 1446 1448 1450
1408 1408 1412 1416 1419 1420 1416 1410 1411 1409 1409 1411 1410 1413 1415 1416 1418 1420 1422 1424 1425 1424 1423 1421 1420 1421 1422 1422 1423 1424 1426 1428 1430 1432 1433 1435 1437 1438 1438 1439 1439 1439 1440 1440 1441 1443 1444 1445 1446 1449 1450 1451 1454 1456
1405 1408 1410 1412 1414 1415 1412 1406 1404 1402 1403 1402 1404 1408 1410 1412 1413 1415 1418 1418 1417 1416 1417 1417 1418 1418 1419 1420 1421 1423 1426 1429 1431 1433 1435 1436 1436 1438 1439 1440 1441 1442 1443 1444 1444 1445 1447 1448 1450 1452 1453 1454 1456 1458
1403 1405 1406 1408 1408 1407 1401 1400 1400 1399 1398 1399 1401 1405 1406 1407 1408 1411 1412 1410 1410 1411 1412 1414 1415 1416 1417 1418 1420 1423 1426 1428 1430 1431 1432 1434 1436 1437 1439 1441 1443 1443 1444 1445 1446 1448 1449 1451 1453 1454 1456 1457 1458 1460
1402 1402 1401 1398 1397 1395 1393 1392 1393 1396 1395 1395 1397 1399 1402 1402 1404 1406 1407 1404 1404 1406 1408 1409 1411 1413 1415 1416 1418 1421 1424 1427 1429 1430 1431 1433 1435 1437 1438 1441 1442 1444 1445 1446 1448 1449 1451 1452 1454 1455 1456 1458 1459 1461
1399 1397 1394 1389 1387 1388 1388 1388 1387 1389 1393 1391 1393 1396 1397 1398 1403 1405 1402 1398 1399 1401 1403 1406 1408 1410 1412 1415 1418 1421 1423 1425 1427 1428 1429 1431 1434 1436 1438 1440 1442 1443 1445 1446 1447 1449 1450 1452 1454 1455 1457 1459 1460 1462
1390 1384 1384 1380 1381 1382 1381 1385 1384 1385 1385 1389 1389 1389 1392 1396 1404 1402 1394 1392 1394 1396 1399 1402 1404 1407 1410 1412 1415 1417 1419 1422 1425 1426 1427 1428 1430 1432 1434 1436 1438 1440 1442 1445 1446 1447 1449 1451 1453 1454 1457 1459 1461 1464
1385 1380 1375 1374 1374 1373 1374 1374 1376 1378 1383 1385 1385 1389 1392 1399 1399 1390 1389 1390 1392 1394 1398 1400 1403 1405 1406 1409 1412 1415 1417 1420 1422 1424 1424 1425 1427 1430 1432 1434 1435 1437 1440 1442 1444 1446 1447 1449 1451 1452 1455 1458 1460 1462
1375 1373 1373 1370 1370 1370 1371 1372 1373 1375 1374 1374 1378 1386 1387 1388 1387 1386 1387 1389 1391 1394 1396 1398 1400 1403 1404 1406 1408 1411 1414 1417 1420 1421 1423 1424 1426 1428 1430 1432 1435 1436 1438 1440 1442 1444 1446 1447 1449 1451 1453 1455 1457 1460
1370 1368 1368 1368 1368 1368 1367 1367 1367 1367 1368 1370 1373 1379 1381 1381 1383 1383 1385 1388 1390 1391 1393 1395 1396 1399 1401 1404 1406 1408 1411 1413 1416 1417 1420 1421 1423 1424 1426 1428 1431 1433 1435 1437 1439 1441 1443 1445 1447 1449 1451 1453 1456 1458
1366 1365 1365 1365 1367 1367 1363 1364 1365 1366 1367 1368 1370 1375 1378 1380 1382 1383 1385 1386 1388 1389 1391 1393 1394 1396 1398 1400 1403 1405 1407 1410 1412 1414 1416 1417 1419 1421 1423 1424 1427 1429 1432 1433 1436 1438 1441 1443 1445 1446 1449 1451 1453 1456
1361 1362 1362 1362 1363 1362 1362 1363 1364 1365 1367 1368 1370 1372 1375 1378 1380 1382 1383 1385 1386 1388 1389 1391 1392 1393 1395 1396 1398 1400 1403 1405 1407 1410 1412 1414 1416 1417 1419 1421 1423 1426 1428 1430 1432 1434 1436 1438 1440 1443 1446 1448 1450 1452
1356 1356 1357 1361 1361 1361 1361 1362 1363 1364 1366 1367 1369 1371 1374 1376 1378 1379 1380 1382 1384 1386 1388 1390 1391 1392 1394 1395 1397 1398 1399 1401 1403 1405 1407 1410 1412 1414 1416 1418 1420 1422 1424 1426 1428 1430 1433 1435 1437 1439 1442 1444 1447 1450
1352 1352 1353 1355 1357 1358 1360 1361 1362 1363 1364 1365 1366 1367 1370 1372 1374 1376 1376 1378 1381 1384 1386 1388 1389 1391 1392 1394 1395 1396 1398 1399 1400 1402 1404 1406 1408 1410 1412 1414 1416 1418 1420 1423 1424 1426 1428 1431 1433 1436 1438 1441 1443 1446
Wind_Speed
11 13 15 15 16 12 13 14 17 18 16 15 14 13 13 12 12 15 18 16 18 11 27 26 26 25 22 15 6 11 8 9 3 3 3 4 4 5 6 11 10 11 8 11 8 15 19 3 2 7 6 24 18 14
14 15 15 12 13 14 13 13 13 11 10 11 13 14 15 16 16 17 22 19 20 26 18 14 18 22 36 40 26 16 14 8 4 0 2 2 3 3 4 6 5 6 7 5 6 5 20 20 16 19 23 34 21 16
15 14 13 12 12 13 12 11 10 9 10 11 12 13 15 17 17 21 23 21 19 25 31 35 33 27 28 36 38 24 30 25 24 24 8 4 8 3 4 6 10 7 20 11 7 15 26 34 28 27 30 39 26 22
11 13 14 13 13 11 11 12 11 11 11 12 12 12 12 12 13 16 21 22 21 14 7 11 16 23 25 24 30 39 47 32 26 20 10 5 6 8 5 8 9 15 3 13 16 20 28 29 36 37 40 42 28 24
13 13 14 12 11 11 11 11 11 12 12 10 8 9 9 9 10 16 22 25 26 23 5 10 16 33 37 28 30 33 38 38 30 13 6 6 6 8 11 9 15 33 27 12 17 35 27 33 40 35 31 36 34 28
15 13 12 12 12 12 12 13 13 11 10 11 10 7 10 11 9 8 5 15 26 29 9 3 8 19 26 25 32 37 32 33 27 9 10 13 33 12 5 12 37 47 37 39 34 49 44 41 45 45 41 41 32 25
14 18 13 15 14 12 12 11 10 10 11 11 11 10 9 10 12 12 6 3 5 12 5 6 6 6 11 11 25 28 25 18 19 13 13 23 29 15 7 17 44 45 38 38 38 40 39 42 38 42 36 31 25 22
20 17 20 16 14 13 13 13 9 11 11 11 11 12 15 15 18 19 21 21 13 7 4 3 4 7 6 4 4 11 11 14 12 10 7 10 13 11 9 26 39 42 41 39 42 45 47 49 42 41 37 36 28 24
18 18 19 20 20 18 14 11 10 10 11 11 9 11 13 12 10 12 11 13 18 14 4 4 2 4 2 4 5 4 8 4 9 4 6 7 5 7 16 26 33 37 35 43 46 41 38 40 42 38 33 31 29 17
16 16 21 21 22 18 15 11 10 11 10 10 11 4 6 6 8 8 5 6 12 10 8 6 7 3 6 2 1 3 4 2 3 5 4 4 7 21 23 30 33 38 40 46 39 33 35 28 30 35 33 23 15 14
14 14 18 18 18 18 15 12 11 10 9 7 7 6 5 10 11 2 4 5 6 4 7 7 14 5 10 3 3 4 2 2 3 3 3 3 2 12 31 36 34 30 21 19 19 19 29 33 31 29 28 25 17 24
15 15 14 16 18 19 16 13 13 9 6 8 4 9 11 5 4 3 3 3 4 4 6 6 7 10 4 4 4 3 2 2 5 3 3 2 5 30 30 31 28 22 21 23 26 29 9 15 20 17 20 21 34 43
11 12 13 16 19 20 17 14 14 9 10 4 8 7 6 5 6 5 6 4 3 5 6 6 2 3 3 2 4 1 3 5 10 3 2 2 20 27 28 25 25 22 23 29 36 42 47 48 48 50 50 51 54 51
11 12 13 15 18 21 18 16 16 9 6 5 7 5 4 5 6 5 4 3 6 7 9 10 2 3 3 2 1 3 4 3 3 2 4 5 20 24 20 18 21 25 29 32 35 39 45 48 48 49 48 48 49 48
11 11 13 17 19 21 20 17 15 10 5 5 5 5 7 10 8 6 14 6 6 7 9 5 3 3 2 2 2 3 3 3 1 3 3 12 16 15 14 15 17 21 26 30 33 38 40 42 44 45 43 42 41 41
7 10 10 11 19 21 20 18 14 12 4 5 7 3 6 6 5 7 9 10 9 10 9 4 2 2 4 3 3 5 2 2 1 1 7 8 8 8 9 11 15 19 25 28 31 33 36 37 39 40 39 39 38 37
8 5 2 5 17 21 21 18 13 8 7 6 8 15 13 7 9 9 7 10 14 13 3 3 4 4 1 2 3 1 3 1 2 3 1 2 5 6 5 8 12 17 21 24 28 30 33 34 35 37 38 33 32 30
15 10 9 12 16 19 22 17 9 8 10 13 5 11 16 11 12 10 10 12 15 10 4 4 3 3 3 3 2 3 4 2 3 4 5 5 5 4 4 8 11 14 18 22 25 28 30 31 32 33 31 28 28 27
18 15 11 14 16 13 11 11 9 4 12 10 16 17 18 14 15 12 12 11 11 8 3 3 2 3 3 3 5 7 7 10 9 9 8 5 3 2 6 8 8 10 13 18 21 25 27 27 29 28 28 25 26 23
13 17 18 15 16 10 5 10 14 9 5 6 15 15 15 12 14 15 14 12 10 4 4 3 4 5 5 6 8 9 10 13 13 14 11 8 5 6 8 9 10 11 13 16 18 19 21 22 20 18 18 18 20 21
7 8 17 22 22 15 5 4 10 7 9 9 10 15 6 9 13 15 14 12 9 5 4 8 8 6 4 5 6 10 16 18 18 16 18 16 11 11 12 14 10 10 13 16 17 17 16 15 15 14 13 14 14 15
7 9 8 18 10 9 8 8 6 3 6 5 17 18 6 7 7 14 11 11 6 12 10 9 10 6 4 8 11 14 17 13 9 9 12 11 14 13 16 16 13 12 12 14 16 18 16 14 13 13 12 13 12 14
8 9 6 10 9 12 7 14 5 3 3 5 11 5 2 5 10 13 6 9 10 14 13 14 11 7 5 8 12 17 19 15 14 12 13 16 13 12 16 16 12 11 13 13 13 12 12 12 11 10 11 12 14 16
9 6 6 8 11 6 5 6 11 5 4 4 5 5 4 7 11 6 3 5 9 14 18 17 15 13 8 12 18 22 20 15 13 12 13 18 16 15 17 17 14 13 12 12 12 12 12 12 11 11 11 12 13 13
6 8 6 7 8 3 3 2 4 4 4 4 4 2 3 6 2 2 3 4 15 21 20 17 14 15 16 15 15 17 15 16 16 15 15 18 17 15 16 16 15 15 15 14 14 13 13 13 13 12 13 13 13 14
5 6 9 7 4 5 6 4 6 5 4 4 5 8 6 3 3 4 3 10 16 25 24 21 19 17 17 16 18 20 19 18 15 14 13 21 22 21 21 21 21 21 17 14 13 12 14 15 17 16 17 16 16 16
4 5 7 8 6 5 3 4 5 4 4 5 4 2 3 4 5 4 4 10 14 19 21 21 21 18 19 19 18 20 16 14 13 8 6 16 20 21 20 22 22 18 16 18 17 16 15 16 18 18 19 18 18 17
7 4 4 5 6 6 4 2 4 6 4 7 9 5 9 8 5 7 7 9 9 17 19 18 17 16 16 15 17 18 20 17 14 10 6 10 16 16 17 16 13 13 13 16 18 18 17 16 16 16 21 20 19 18
5 6 4 1 3 3 5 4 4 4 6 11 6 4 4 5 7 8 11 11 12 15 17 17 17 20 19 17 16 18 19 19 19 17 14 14 17 18 16 16 17 16 14 15 14 16 15 15 15 14 17 16 16 17
5 8 3 3 4 4 4 4 6 7 5 7 9 8 6 7 8 8 9 11 12 11 11 11 11 12 14 17 20 20 21 19 18 17 17 16 14 14 17 18 17 16 15 15 17 17 16 17 17 17 18 18 18 20
11 10 5 6 4 5 6 8 7 8 9 7 8 8 9 8 9 10 9 9 10 12 11 10 9 9 9 10 12 16 25 23 19 18 17 14 13 12 14 16 16 16 16 16 19 22 22 22 22 21 21 20 19 19
15 8 9 3 3 6 10 9 9 8 7 6 5 8 9 7 9 11 14 13 15 15 13 12 11 11 10 10 9 10 10 12 15 18 18 16 14 13 13 15 17 17 18 17 18 23 23 23 22 21 19 18 18 18
13 13 13 7 6 7 8 6 7 5 6 7 8 12 8 11 7 12 17 20 19 17 16 14 13 13 12 12 11 11 10 10 9 14 18 16 14 15 14 15 18 20 20 20 20 22 23 23 22 20 19 19 18 18
Wind_Direction
241 233 237 249 254 223 219 220 231 241 245 249 250 250 249 246 245 247 252 247 234 234 258 255 248 244 255 258 253 256 317 269 275 212 204 222 229 227 258 262 270 264 252 243 242 244 257 87 245 194 240 295 300 319
245 249 251 241 220 223 226 228 233 230 237 249 256 259 256 251 242 242 252 256 247 239 248 257 269 258 254 256 257 251 240 247 274 81 272 291 271 247 265 282 227 250 216 240 249 255 294 291 300 295 294 291 296 304
246 253 227 222 223 226 230 213 214 234 248 258 263 264 258 251 246 241 248 248 251 246 263 258 261 282 271 257 252 242 253 245 244 245 254 238 248 175 231 242 250 252 237 243 251 247 252 264 271 277 284 282 289 298
220 219 231 231 234 218 211 220 232 246 258 265 270 263 251 241 233 234 237 245 241 257 259 278 280 267 294 271 255 246 254 246 247 243 240 236 245 218 244 249 249 249 286 243 256 254 264 273 265 263 268 277 283 288
231 237 242 221 206 213 225 233 244 253 257 259 260 256 245 234 233 240 246 251 250 235 280 284 269 273 277 266 258 258 251 244 245 237 228 246 231 242 255 265 256 250 246 244 250 257 252 264 269 272 267 271 279 282
228 231 219 210 217 226 239 247 255 254 253 248 254 253 228 216 239 271 276 271 245 248 260 282 289 275 276 269 263 256 249 240 230 236 247 245 242 228 240 255 259 261 254 248 250 260 258 257 263 268 263 273 273 273
231 224 220 223 237 242 251 255 234 237 235 239 239 239 263 263 257 259 243 294 178 209 253 278 280 288 310 291 250 249 250 229 222 235 236 251 251 243 256 261 269 274 274 269 261 257 258 255 251 262 263 261 269 266
238 240 232 231 234 243 253 244 235 228 228 233 236 240 246 251 265 257 248 245 222 230 276 262 272 303 245 236 226 229 213 224 224 229 233 239 259 214 247 256 268 275 282 281 271 260 251 260 260 260 261 267 255 257
246 244 233 234 237 243 241 236 232 230 235 247 249 269 263 237 225 242 252 252 244 232 237 237 214 263 284 246 210 211 222 232 232 224 231 225 229 233 254 294 303 293 284 279 275 262 257 246 251 249 243 244 254 237
253 247 224 236 238 228 226 232 230 229 237 252 275 209 207 207 202 140 132 166 195 211 222 248 216 269 301 325 273 273 248 260 264 233 222 226 258 283 308 304 303 305 302 296 276 261 238 239 237 239 235 217 229 230
243 239 227 232 222 215 219 229 229 222 245 256 204 201 178 154 166 215 179 196 194 236 226 237 221 243 268 187 221 231 271 256 262 261 201 249 250 331 328 325 331 332 342 359 343 284 239 226 220 222 229 229 219 182
247 243 238 223 217 211 214 218 216 208 226 197 175 160 152 169 191 214 193 196 211 234 204 188 224 210 238 231 220 214 255 261 257 345 242 278 340 335 337 346 357 10 27 43 49 50 44 215 194 181 187 182 160 147
244 244 245 228 216 210 208 214 204 213 248 226 186 165 158 173 215 217 203 204 214 210 191 192 212 220 230 261 267 255 251 239 325 233 284 27 332 340 351 7 22 42 59 71 71 78 87 94 106 113 109 117 129 137
243 251 252 235 214 205 203 209 201 215 246 228 185 169 202 185 222 205 200 182 192 184 186 199 204 190 216 212 235 258 255 307 292 288 12 340 340 348 3 24 44 51 64 72 80 92 98 102 104 115 123 129 130 130
247 263 261 239 214 202 200 206 202 197 215 235 226 202 210 227 224 236 220 206 210 197 173 174 211 183 206 240 226 277 292 251 301 354 321 342 342 356 21 43 60 74 81 86 91 96 102 108 111 113 118 122 124 127
257 274 262 239 215 202 196 200 206 188 221 230 230 236 232 171 241 215 225 220 192 166 167 201 211 207 219 212 203 226 258 267 2 298 324 340 354 14 45 63 80 91 96 97 99 102 106 108 111 115 119 121 123 124
243 249 286 217 193 189 187 183 190 204 218 227 234 225 231 222 214 216 233 196 179 156 202 184 212 219 127 230 228 193 222 187 178 231 309 35 51 68 71 78 95 100 101 104 108 110 110 113 117 118 116 118 120 121
240 204 167 143 152 170 180 186 209 217 225 231 218 220 216 227 221 219 220 186 178 200 198 209 253 220 207 203 208 235 188 130 180 194 162 119 103 90 88 105 108 109 114 117 118 120 123 125 121 118 120 124 124 124
236 241 221 176 165 172 180 201 213 257 230 225 231 229 226 226 234 234 213 180 205 211 234 221 214 221 213 192 191 204 207 175 171 161 152 149 146 143 135 134 128 127 128 127 130 131 131 130 128 133 136 137 131 132
241 235 225 211 193 199 226 202 186 220 243 220 225 211 204 213 218 210 207 201 201 196 209 218 216 202 183 212 223 215 202 192 172 155 161 166 186 174 163 155 146 138 134 136 136 137 134 132 135 134 134 134 134 138
276 221 198 203 212 217 269 229 202 222 200 217 212 203 199 205 192 195 200 202 209 212 222 233 212 201 235 211 198 196 194 196 192 190 181 171 172 169 162 166 164 158 154 154 152 151 150 144 143 144 141 139 140 140
202 167 193 187 191 209 251 242 225 247 209 200 190 194 184 182 187 209 207 201 214 219 222 227 214 217 213 193 183 187 184 187 184 203 202 197 182 178 171 178 176 170 168 165 166 163 161 158 154 154 157 152 153 153
214 177 186 197 204 207 246 211 214 242 174 189 162 135 173 171 190 176 205 214 225 222 222 219 213 223 232 186 176 175 181 189 196 214 211 194 190 189 179 180 189 189 178 178 186 183 177 169 167 167 166 161 160 157
183 198 221 207 207 217 205 199 182 180 251 154 159 172 170 182 164 185 212 211 216 213 208 206 206 187 188 178 177 177 185 191 200 208 213 189 193 195 191 187 194 197 206 193 191 195 195 189 187 190 186 180 174 172
190 219 212 239 207 177 165 187 188 182 181 177 156 156 172 156 131 187 219 222 201 196 200 204 201 210 199 177 172 180 192 198 200 203 204 196 196 191 191 192 197 207 208 203 199 205 200 204 205 205 203 198 191 184
218 216 189 205 215 164 192 168 192 185 143 155 195 158 147 111 127 234 219 198 200 194 190 195 193 185 193 194 196 201 205 207 216 229 231 206 203 203 195 193 199 209 212 218 220 216 214 212 210 207 205 202 199 195
242 265 221 224 215 198 170 179 164 133 166 171 153 132 112 151 219 242 191 192 199 196 191 195 203 205 208 208 211 208 201 215 222 249 252 223 208 209 211 206 208 216 210 212 217 220 223 221 222 215 207 207 206 205
239 256 189 211 214 215 169 161 150 179 187 169 141 163 170 186 214 178 195 183 185 189 193 199 203 200 192 197 204 204 210 209 210 212 201 198 209 216 216 217 219 224 223 219 215 216 222 228 227 228 208 208 207 202
242 230 236 210 175 233 207 183 204 184 155 175 150 160 163 160 180 188 174 180 199 216 221 223 215 207 200 193 191 189 193 200 206 210 217 214 210 215 213 211 214 216 217 216 216 220 225 223 225 239 217 210 208 203
233 219 206 183 150 223 221 189 169 160 149 157 152 134 139 152 178 173 186 208 214 201 192 194 197 200 205 210 206 198 193 199 208 219 227 227 230 222 219 215 215 216 216 215 210 205 205 207 214 213 206 207 209 209
197 209 210 197 211 213 215 190 175 167 156 146 153 160 155 157 180 184 190 205 200 193 194 196 201 191 203 215 215 216 216 217 219 221 222 223 225 225 218 217 215 218 219 220 212 206 203 206 207 207 208 210 212 214
206 208 172 143 184 185 185 190 183 179 160 158 146 155 153 162 177 190 194 201 199 188 192 196 196 195 197 203 206 210 216 216 224 218 217 217 219 219 221 220 218 218 219 221 220 210 212 211 211 211 211 212 216 221
213 213 212 155 150 173 180 165 181 168 184 185 182 184 166 179 184 189 194 195 196 200 199 197 196 199 202 204 205 206 208 211 215 214 210 211 213 213 224 221 214 217 219 220 222 218 215 216 218 218 218 217 219 222